Regional Weather Roundup
Issued by NWS

Home | Current Version | Previous Version | Graphics & Text | Print | Product List | Glossary On
Versions: 1 2 3 4 5 6 7 8 9 10 11 12 13 14 15 16 17 18 19 20 21 22 23 24 25 26 27 28 29 30 31 32 33 34 35 36 37 38 39 40 41 42 43 44 45 46 47 48 49
000
ASUS45 KCYS 301210
RWRWY

WYOMING REGIONAL WEATHER ROUNDUP
NATIONAL WEATHER SERVICE CHEYENNE WY
600 AM MDT SUN AUG 30 2015

NOTE:  "FAIR" INDICATES FEW OR NO CLOUDS BELOW 12,000 FEET
WITH NO SIGNIFICANT WEATHER AND/OR OBSTRUCTIONS TO VISIBILITY.

WYZ001-301300-
YELLOWSTONE NATIONAL PARK

CITY           SKY/WX    TMP DP  RH WIND       PRES   REMARKS
LK YELLOWSTONE   N/A     45  44  97 VRB3      30.16R
6HR MIN TEMP:  45; 6HR MAX TEMP:  55; 6HR PCP:  0.09;

W YELLOWSTONE  NOT AVBL

$$
WYZ002>013-054>058-071-098>099-301300-
NORTHERN WYOMING

CITY           SKY/WX    TMP DP  RH WIND       PRES   REMARKS
JACKSON        MOCLDY    55  52  88 E6        30.07F
CODY           FAIR      70  45  40 S7        29.90S
GREYBULL       FAIR      71  43  36 VRB5      29.83F
6HR MIN TEMP:  65; 6HR MAX TEMP:  77;

WORLAND        FAIR      68  45  43 E7        29.87F
6HR MIN TEMP:  62; 6HR MAX TEMP:  72;

SHERIDAN       FAIR      61  45  55 NE5       29.84R
6HR MIN TEMP:  60; 6HR MAX TEMP:  71;

BUFFALO        FAIR      77  37  23 W10       29.91R
6HR MIN TEMP:  70; 6HR MAX TEMP:  81;

GILLETTE       FAIR      74  33  22 SW18      29.85S
6HR MIN TEMP:  69; 6HR MAX TEMP:  74;

HULETT         FAIR      79  34  19 SW10      29.87S
NEWCASTLE      FAIR      70  36  28 SE7       29.92F

$$
WYZ014>020-022>026-101>103-301300-
CENTRAL WYOMING

CITY           SKY/WX    TMP DP  RH WIND       PRES   REMARKS
BIG PINEY      FAIR      52  41  66 E10       30.14F
6HR MIN TEMP:  51; 6HR MAX TEMP:  59; 6HR PCP: TRACE;

PINEDALE       FAIR      54  41  62 SW3       30.16S
DUBOIS         LGT RAIN  54  45  71 N3        30.12F
LANDER         FAIR      66  40  38 NW5       29.97S
6HR MIN TEMP:  66; 6HR MAX TEMP:  78;

RIVERTON       FAIR      64  42  44 SE5       29.98S
6HR MIN TEMP:  63; 6HR MAX TEMP:  73;

CASPER         FAIR      72  30  21 SW14      29.99S
6HR MIN TEMP:  62; 6HR MAX TEMP:  72;

DOUGLAS        FAIR      54  39  57 CALM      30.00S
6HR MIN TEMP:  54; 6HR MAX TEMP:  66;


$$
WYZ021-027>030-104>119-301300-
SOUTHERN WYOMING

CITY           SKY/WX    TMP DP  RH WIND       PRES   REMARKS
EVANSTON       FAIR      65  40  39 SW14      30.13S
6HR MIN TEMP:  64; 6HR MAX TEMP:  70;

KEMMERER       FAIR      59  36  41 W3        30.15S
FORT BRIDGER   SUNNY     70  39  32 SW17      30.16S
ROCK SPRINGS   MOCLDY    67  32  27 SW12      30.12S
6HR MIN TEMP:  66; 6HR MAX TEMP:  70;

DIXON          FAIR      48  35  60 SE5       30.20S
RAWLINS        FAIR      61  29  29 SW5       30.15S
6HR MIN TEMP:  60; 6HR MAX TEMP:  68;

SARATOGA       FAIR      55  36  47 SE7       30.20S
LARAMIE        FAIR      47  36  65 S7        30.22S
6HR MIN TEMP:  47; 6HR MAX TEMP:  57;

CHEYENNE       FAIR      60  39  45 W14       30.12F
6HR MIN TEMP:  54; 6HR MAX TEMP:  66;

TORRINGTON     FAIR      63  42  46 SE8       29.97S
6HR MIN TEMP:  61; 6HR MAX TEMP:  72;

PINE BLUFFS    FAIR      50  39  66 W9        30.08S

$$


USA.gov is the U.S. government's official web portal to all federal, state and local government web resources and services.